TimeMST,TemperatureF,Dew PointF,Humidity,Sea Level PressureIn,VisibilityMPH,Wind Direction,Wind SpeedMPH,Gust SpeedMPH,PrecipitationIn,Events,Conditions,WindDirDegrees,DateUTC
12:57 AM,53.1,24.1,32,30.08,10.0,NE,5.8,-,N/A,,Clear,40,2014-01-20 07:57:00
1:57 AM,52.0,23.0,32,30.08,10.0,Calm,Calm,-,N/A,,Clear,0,2014-01-20 08:57:00
2:57 AM,53.1,21.0,29,30.08,10.0,ENE,4.6,-,N/A,,Clear,60,2014-01-20 09:57:00
4:57 AM,50.0,24.1,36,30.09,10.0,North,5.8,-,N/A,,Clear,10,2014-01-20 11:57:00
5:57 AM,51.1,21.9,32,30.09,10.0,NE,4.6,-,N/A,,Clear,50,2014-01-20 12:57:00
6:57 AM,50.0,23.0,35,30.11,10.0,NNE,3.5,-,N/A,,Clear,20,2014-01-20 13:57:00
7:57 AM,50.0,21.0,32,30.12,10.0,NNE,8.1,-,N/A,,Clear,30,2014-01-20 14:57:00
8:57 AM,55.0,21.0,27,30.13,10.0,NNE,10.4,-,N/A,,Clear,30,2014-01-20 15:57:00
9:57 AM,60.1,21.9,23,30.15,10.0,NE,15.0,-,N/A,,Clear,40,2014-01-20 16:57:00
10:57 AM,66.0,19.9,17,30.17,10.0,NE,11.5,-,N/A,,Clear,50,2014-01-20 17:57:00
11:57 AM,69.1,21.0,16,30.16,10.0,NE,9.2,-,N/A,,Clear,40,2014-01-20 18:57:00
12:57 PM,73.0,21.0,14,30.13,7.0,NNE,9.2,-,N/A,,Clear,20,2014-01-20 19:57:00
1:57 PM,75.9,21.0,13,30.11,10.0,North,6.9,-,N/A,,Clear,350,2014-01-20 20:57:00
2:57 PM,78.1,19.0,11,30.09,10.0,North,5.8,-,N/A,,Clear,350,2014-01-20 21:57:00
3:57 PM,79.0,16.0,9,30.09,10.0,North,8.1,-,N/A,,Clear,10,2014-01-20 22:57:00
4:57 PM,78.1,15.1,9,30.09,10.0,North,6.9,-,N/A,,Clear,350,2014-01-20 23:57:00
5:57 PM,72.0,16.0,12,30.11,10.0,North,5.8,-,N/A,,Clear,350,2014-01-21 00:57:00
6:57 PM,70.0,14.0,12,30.12,10.0,North,6.9,-,N/A,,Clear,350,2014-01-21 01:57:00
7:57 PM,68.0,15.1,13,30.14,10.0,North,9.2,-,N/A,,Clear,350,2014-01-21 02:57:00
8:57 PM,66.0,14.0,13,30.15,10.0,NNW,6.9,-,N/A,,Clear,330,2014-01-21 03:57:00
9:57 PM,63.0,16.0,16,30.16,10.0,North,4.6,-,N/A,,Clear,360,2014-01-21 04:57:00
10:57 PM,61.0,15.1,17,30.17,10.0,North,4.6,-,N/A,,Clear,350,2014-01-21 05:57:00
11:57 PM,57.9,17.1,20,30.18,10.0,Calm,Calm,-,N/A,,Clear,0,2014-01-21 06:57:00